| time (UTC) | temp C | wind direction | speed KPH | gust KPH | rain 1hr cm | rain 24hr cm | rain mn cm | humidity % | barometer mb |
| 20260503034003 | 27 | 300 | 1.6 | 8.0 | 0.00 | 0.00 | 0.00 | 76 | 1012.1 |
| 20260503033004 | 27 | 134 | 0.0 | 8.0 | 0.00 | 0.00 | 0.00 | 75 | 1011.9 |
| 20260503032504 | 27 | 275 | 1.6 | 8.0 | 0.00 | 0.00 | 0.00 | 75 | 1011.9 |
| 20260503032004 | 27 | 191 | 1.6 | 4.8 | 0.00 | 0.00 | 0.00 | 75 | 1011.9 |
| 20260503031503 | 27 | 147 | 1.6 | 8.0 | 0.00 | 0.00 | 0.00 | 74 | 1011.8 |
| 20260503031004 | 27 | 105 | 1.6 | 4.8 | 0.00 | 0.00 | 0.00 | 74 | 1011.7 |
| 20260503030504 | 27 | 289 | 1.6 | 8.0 | 0.00 | 0.00 | 0.00 | 74 | 1011.6 |
| 20260503030004 | 27 | 199 | 1.6 | 4.8 | 0.00 | 0.00 | 0.00 | 73 | 1011.5 |
| 20260503025004 | 27 | 192 | 1.6 | 8.0 | 0.00 | 0.00 | 0.00 | 72 | 1011.2 |
| 20260503024004 | 27 | 237 | 1.6 | 8.0 | 0.00 | 0.00 | 0.00 | 71 | 1011.3 |
| 20260503023504 | 27 | 241 | 1.6 | 8.0 | 0.00 | 0.00 | 0.00 | 71 | 1011.2 |
| 20260503023004 | 27 | 158 | 1.6 | 4.8 | 0.00 | 0.00 | 0.00 | 71 | 1011.2 |
| 20260503022503 | 27 | 136 | 3.2 | 9.7 | 0.00 | 0.00 | 0.00 | 70 | 1011.1 |
| 20260503021504 | 28 | 127 | 1.6 | 8.0 | 0.00 | 0.00 | 0.00 | 68 | 1011.1 |
| 20260503021003 | 28 | 143 | 3.2 | 9.7 | 0.00 | 0.00 | 0.00 | 68 | 1011.0 |
| 20260503020504 | 28 | 115 | 1.6 | 4.8 | 0.00 | 0.00 | 0.00 | 67 | 1011.1 |
| 20260503020004 | 28 | 135 | 1.6 | 8.0 | 0.00 | 0.00 | 0.00 | 66 | 1011.0 |
| 20260503015504 | 28 | 239 | 1.6 | 8.0 | 0.00 | 0.00 | 0.00 | 66 | 1011.0 |
| 20260503015004 | 28 | 147 | 3.2 | 11.3 | 0.00 | 0.00 | 0.00 | 65 | 1011.0 |
| 20260503014504 | 28 | 273 | 3.2 | 8.0 | 0.00 | 0.00 | 0.00 | 64 | 1011.2 |
| 20260503013505 | 28 | 272 | 1.6 | 8.0 | 0.00 | 0.00 | 0.00 | 63 | 1011.1 |
| 20260503013004 | 28 | 132 | 1.6 | 8.0 | 0.00 | 0.00 | 0.00 | 62 | 1011.1 |
| 20260503012504 | 28 | 102 | 1.6 | 8.0 | 0.00 | 0.00 | 0.00 | 60 | 1011.2 |
| 20260503012003 | 28 | 287 | 1.6 | 11.3 | 0.00 | 0.00 | 0.00 | 60 | 1011.4 |
| 20260503011504 | 28 | 282 | 1.6 | 11.3 | 0.00 | 0.00 | 0.00 | 59 | 1011.4 |
| 20260503011004 | 28 | 238 | 1.6 | 12.9 | 0.00 | 0.00 | 0.00 | 58 | 1011.3 |
| 20260503010003 | 29 | 269 | 3.2 | 8.0 | 0.00 | 0.00 | 0.00 | 57 | 1011.5 |
| 20260503005503 | 29 | 275 | 4.8 | 12.9 | 0.00 | 0.00 | 0.00 | 56 | 1011.8 |
| 20260503005004 | 29 | 251 | 3.2 | 12.9 | 0.00 | 0.00 | 0.00 | 56 | 1012.0 |
| 20260503004504 | 29 | 253 | 3.2 | 12.9 | 0.00 | 0.00 | 0.00 | 55 | 1012.0 |
| 20260503003504 | 30 | 111 | 1.6 | 8.0 | 0.00 | 0.00 | 0.00 | 55 | 1011.3 |
| 20260503003004 | 30 | 234 | 3.2 | 11.3 | 0.00 | 0.00 | 0.00 | 54 | 1011.3 |
| 20260503002003 | 30 | 268 | 3.2 | 9.7 | 0.00 | 0.00 | 0.00 | 52 | 1011.6 |
| 20260503001503 | 30 | 256 | 3.2 | 11.3 | 0.00 | 0.00 | 0.00 | 51 | 1011.6 |
| 20260503001003 | 30 | 276 | 1.6 | 11.3 | 0.00 | 0.00 | 0.00 | 50 | 1011.4 |
| 20260503000504 | 30 | 162 | 3.2 | 12.9 | 0.00 | 0.00 | 0.00 | 48 | 1011.9 |
| 20260503000004 | 31 | 33 | 1.6 | 12.9 | 0.00 | 0.00 | 0.00 | 46 | 1012.3 |
| 20260502235504 | 31 | 125 | 3.2 | 12.9 | 0.00 | 0.00 | 0.00 | 45 | 1012.5 |
| 20260502235004 | 31 | 269 | 3.2 | 11.3 | 0.00 | 0.00 | 0.00 | 43 | 1012.7 |
| 20260502234504 | 31 | 251 | 3.2 | 11.3 | 0.00 | 0.00 | 0.00 | 42 | 1012.8 |
| 20260502234004 | 31 | 135 | 3.2 | 9.7 | 0.00 | 0.00 | 0.00 | 42 | 1012.5 |
| 20260502233504 | 31 | 252 | 3.2 | 9.7 | 0.00 | 0.00 | 0.00 | 41 | 1012.5 |
| 20260502233004 | 31 | 168 | 1.6 | 8.0 | 0.00 | 0.00 | 0.00 | 41 | 1012.4 |
| 20260502232503 | 31 | 208 | 3.2 | 12.9 | 0.00 | 0.00 | 0.00 | 40 | 1012.3 |
| 20260502231504 | 32 | 101 | 1.6 | 8.0 | 0.00 | 0.00 | 0.00 | 39 | 1012.1 |
| 20260502231003 | 32 | 290 | 3.2 | 9.7 | 0.00 | 0.00 | 0.00 | 38 | 1012.0 |
| 20260502230504 | 32 | 129 | 1.6 | 9.7 | 0.00 | 0.00 | 0.00 | 38 | 1012.0 |
| 20260502230004 | 32 | 142 | 1.6 | 9.7 | 0.00 | 0.00 | 0.00 | 38 | 1011.9 |
| 20260502225504 | 33 | 124 | 3.2 | 8.0 | 0.00 | 0.00 | 0.00 | 37 | 1011.7 |
| 20260502225004 | 33 | 166 | 1.6 | 8.0 | 0.00 | 0.00 | 0.00 | 37 | 1011.7 |
| 20260502224504 | 33 | 118 | 3.2 | 11.3 | 0.00 | 0.00 | 0.00 | 36 | 1012.1 |
| 20260502224004 | 33 | 164 | 3.2 | 4.8 | 0.00 | 0.00 | 0.00 | 36 | 1012.3 |
| 20260502223504 | 33 | 234 | 3.2 | 8.0 | 0.00 | 0.00 | 0.00 | 37 | 1012.6 |
| 20260502223004 | 33 | 159 | 3.2 | 8.0 | 0.00 | 0.00 | 0.00 | 38 | 1011.7 |
| 20260502222504 | 33 | 209 | 3.2 | 11.3 | 0.00 | 0.00 | 0.00 | 38 | 1012.0 |
| 20260502222004 | 33 | 131 | 3.2 | 11.3 | 0.00 | 0.00 | 0.00 | 38 | 1011.9 |
| 20260502221503 | 33 | 129 | 3.2 | 12.9 | 0.00 | 0.00 | 0.00 | 38 | 1011.9 |
| 20260502221004 | 33 | 146 | 3.2 | 11.3 | 0.00 | 0.00 | 0.00 | 38 | 1011.8 |
| 20260502220004 | 33 | 226 | 3.2 | 12.9 | 0.00 | 0.00 | 0.00 | 37 | 1011.5 |
| 20260502215504 | 33 | 165 | 3.2 | 11.3 | 0.00 | 0.00 | 0.00 | 36 | 1011.7 |
| 20260502214503 | 33 | 134 | 3.2 | 8.0 | 0.00 | 0.00 | 0.00 | 36 | 1011.9 |
| 20260502214004 | 33 | 136 | 3.2 | 9.7 | 0.00 | 0.00 | 0.00 | 36 | 1011.5 |
| 20260502213503 | 33 | 125 | 3.2 | 12.9 | 0.00 | 0.00 | 0.00 | 36 | 1011.3 |
| 20260502213004 | 33 | 169 | 3.2 | 11.3 | 0.00 | 0.00 | 0.00 | 35 | 1011.6 |
| 20260502212504 | 33 | 204 | 4.8 | 12.9 | 0.00 | 0.00 | 0.00 | 35 | 1011.4 |
| 20260502211503 | 33 | 143 | 3.2 | 9.7 | 0.00 | 0.00 | 0.00 | 34 | 1011.6 |
| 20260502211004 | 33 | 145 | 3.2 | 9.7 | 0.00 | 0.00 | 0.00 | 35 | 1011.4 |
| 20260502210504 | 33 | 287 | 4.8 | 19.3 | 0.00 | 0.00 | 0.00 | 34 | 1011.2 |
| 20260502210004 | 33 | 273 | 4.8 | 11.3 | 0.00 | 0.00 | 0.00 | 34 | 1011.7 |
| 20260502205504 | 33 | 289 | 3.2 | 19.3 | 0.00 | 0.00 | 0.00 | 36 | 1011.5 |
| 20260502205004 | 33 | 147 | 3.2 | 11.3 | 0.00 | 0.00 | 0.00 | 36 | 1010.9 |
| 20260502204504 | 33 | 129 | 3.2 | 11.3 | 0.00 | 0.00 | 0.00 | 35 | 1011.2 |
| 20260502204004 | 33 | 274 | 3.2 | 12.9 | 0.00 | 0.00 | 0.00 | 34 | 1011.6 |
| 20260502202504 | 33 | 227 | 3.2 | 12.9 | 0.00 | 0.00 | 0.00 | 35 | 1013.0 |
| 20260502202005 | 33 | 98 | 3.2 | 9.7 | 0.00 | 0.00 | 0.00 | 40 | 1011.6 |
| 20260502201504 | 33 | 306 | 3.2 | 12.9 | 0.00 | 0.00 | 0.00 | 39 | 1011.7 |
| 20260502201004 | 33 | 231 | 3.2 | 11.3 | 0.00 | 0.00 | 0.00 | 37 | 1012.1 |
| 20260502200504 | 33 | 105 | 3.2 | 11.3 | 0.00 | 0.00 | 0.00 | 38 | 1012.9 |
| 20260502200003 | 33 | 154 | 3.2 | 9.7 | 0.00 | 0.00 | 0.00 | 41 | 1012.0 |
| 20260502195504 | 34 | 133 | 3.2 | 8.0 | 0.00 | 0.00 | 0.00 | 40 | 1012.2 |
| 20260502195005 | 33 | 127 | 3.2 | 9.7 | 0.00 | 0.00 | 0.00 | 39 | 1012.6 |
| 20260502194504 | 33 | 134 | 3.2 | 8.0 | 0.00 | 0.00 | 0.00 | 41 | 1012.2 |
| 20260502194004 | 33 | 120 | 3.2 | 11.3 | 0.00 | 0.00 | 0.00 | 40 | 1012.7 |
| 20260502192004 | 34 | 183 | 3.2 | 12.9 | 0.00 | 0.00 | 0.00 | 41 | 1011.9 |
| 20260502191503 | 34 | 205 | 3.2 | 12.9 | 0.00 | 0.00 | 0.00 | 38 | 1012.5 |
| 20260502191005 | 34 | 140 | 3.2 | 11.3 | 0.00 | 0.00 | 0.00 | 39 | 1013.1 |
| 20260502190504 | 33 | 123 | 3.2 | 9.7 | 0.00 | 0.00 | 0.00 | 40 | 1012.4 |
| 20260502190004 | 33 | 267 | 3.2 | 14.5 | 0.00 | 0.00 | 0.00 | 40 | 1013.1 |
| 20260502185504 | 33 | 154 | 4.8 | 16.1 | 0.00 | 0.00 | 0.00 | 41 | 1012.7 |
| 20260502185004 | 33 | 99 | 3.2 | 12.9 | 0.00 | 0.00 | 0.00 | 41 | 1013.2 |
| 20260502184504 | 33 | 158 | 3.2 | 11.3 | 0.00 | 0.00 | 0.00 | 44 | 1013.6 |
| 20260502183503 | 32 | 136 | 3.2 | 8.0 | 0.00 | 0.00 | 0.00 | 50 | 1013.0 |
| 20260502182505 | 32 | 130 | 1.6 | 8.0 | 0.00 | 0.00 | 0.00 | 51 | 1012.7 |
| 20260502182004 | 32 | 166 | 3.2 | 11.3 | 0.00 | 0.00 | 0.00 | 50 | 1012.5 |
| 20260502181504 | 33 | 183 | 3.2 | 9.7 | 0.00 | 0.00 | 0.00 | 48 | 1013.4 |
| 20260502180504 | 32 | 156 | 3.2 | 11.3 | 0.00 | 0.00 | 0.00 | 54 | 1012.6 |
| 20260502170504 | 30 | 154 | 4.8 | 12.9 | 0.00 | 0.00 | 0.00 | 65 | 1011.0 |
| 20260502164003 | 31 | 193 | 3.2 | 11.3 | 0.00 | 0.00 | 0.00 | 63 | 1012.2 |
| 20260502163503 | 31 | 155 | 3.2 | 9.7 | 0.00 | 0.00 | 0.00 | 62 | 1013.1 |
| 20260502163004 | 30 | 154 | 4.8 | 11.3 | 0.00 | 0.00 | 0.00 | 64 | 1011.8 |
| 20260502162504 | 30 | 161 | 3.2 | 12.9 | 0.00 | 0.00 | 0.00 | 66 | 1012.4 |
| 20260502162004 | 30 | 159 | 4.8 | 11.3 | 0.00 | 0.00 | 0.00 | 69 | 1010.9 |
| 20260502161504 | 30 | 182 | 3.2 | 12.9 | 0.00 | 0.00 | 0.00 | 71 | 1010.6 |
| 20260502161004 | 29 | 146 | 1.6 | 9.7 | 0.00 | 0.00 | 0.00 | 72 | 1010.1 |
| 20260502160504 | 29 | 181 | 3.2 | 11.3 | 0.00 | 0.00 | 0.00 | 71 | 1010.2 |
| 20260502152003 | 29 | 171 | 9.7 | 14.5 | 0.00 | 0.00 | 0.00 | 71 | 1010.2 |
| 20260502151503 | 30 | 174 | 3.2 | 9.7 | 0.00 | 0.00 | 0.00 | 71 | 1010.6 |
| 20260502151004 | 29 | 160 | 4.8 | 14.5 | 0.00 | 0.00 | 0.00 | 71 | 1010.5 |
| 20260502150504 | 29 | 170 | 4.8 | 14.5 | 0.00 | 0.00 | 0.00 | 73 | 1010.2 |
| 20260502130504 | 27 | 162 | 3.2 | 12.9 | 0.00 | 0.00 | 0.00 | 80 | 1009.5 |
| 20260502123504 | 27 | 158 | 3.2 | 9.7 | 0.00 | 0.00 | 0.00 | 80 | 1009.8 |
| 20260502123004 | 27 | 157 | 3.2 | 9.7 | 0.00 | 0.00 | 0.00 | 80 | 1009.5 |
| 20260502121503 | 27 | 179 | 3.2 | 9.7 | 0.00 | 0.00 | 0.00 | 83 | 1010.5 |
| 20260502120504 | 26 | 173 | 1.6 | 12.9 | 0.00 | 0.00 | 0.00 | 86 | 1011.6 |
| 20260502115505 | 26 | 118 | 0.0 | 11.3 | 0.00 | 0.00 | 0.00 | 90 | 1012.5 |
| 20260502115004 | 25 | 152 | 3.2 | 8.0 | 0.00 | 0.00 | 0.00 | 91 | 1012.4 |
| 20260502114004 | 25 | 96 | 0.0 | 1.6 | 0.00 | 0.00 | 0.00 | 91 | 1012.4 |
| 20260502113504 | 25 | 101 | 0.0 | 1.6 | 0.00 | 0.00 | 0.00 | 91 | 1012.4 |
| 20260502113004 | 25 | 87 | 0.0 | 0.0 | 0.00 | 0.00 | 0.00 | 92 | 1012.4 |
| 20260502112504 | 25 | 87 | 0.0 | 3.2 | 0.00 | 0.00 | 0.00 | 91 | 1012.4 |
| 20260502112004 | 25 | 88 | 1.6 | 3.2 | 0.00 | 0.00 | 0.00 | 91 | 1012.4 |
| 20260502111504 | 25 | 210 | 0.0 | 1.6 | 0.00 | 0.00 | 0.00 | 91 | 1012.4 |
| 20260502111004 | 25 | 357 | 0.0 | 3.2 | 0.00 | 0.00 | 0.00 | 91 | 1012.4 |
| 20260502110503 | 25 | 124 | 0.0 | 1.6 | 0.00 | 0.00 | 0.00 | 91 | 1012.4 |
| 20260502110004 | 24 | 77 | 0.0 | 3.2 | 0.00 | 0.00 | 0.00 | 91 | 1012.4 |
| 20260502105504 | 24 | 83 | 1.6 | 3.2 | 0.00 | 0.00 | 0.00 | 91 | 1012.4 |
| 20260502104504 | 24 | 23 | 0.0 | 0.0 | 0.00 | 0.00 | 0.00 | 91 | 1012.3 |
| 20260502104004 | 24 | 75 | 1.6 | 1.6 | 0.00 | 0.00 | 0.00 | 91 | 1012.3 |
| 20260502103504 | 24 | 65 | 0.0 | 1.6 | 0.00 | 0.00 | 0.00 | 91 | 1012.2 |
| 20260502103004 | 24 | 90 | 0.0 | 1.6 | 0.00 | 0.00 | 0.00 | 91 | 1012.2 |
| 20260502102503 | 24 | 96 | 0.0 | 1.6 | 0.00 | 0.00 | 0.00 | 91 | 1012.3 |
| 20260502101504 | 24 | 72 | 0.0 | 0.0 | 0.00 | 0.00 | 0.00 | 90 | 1012.4 |
| 20260502101004 | 24 | 33 | 0.0 | 1.6 | 0.00 | 0.00 | 0.00 | 90 | 1012.4 |
| 20260502091503 | 25 | 140 | 0.0 | 4.8 | 0.00 | 0.00 | 0.00 | 91 | 1012.1 |
| 20260502091004 | 25 | 156 | 1.6 | 9.7 | 0.00 | 0.00 | 0.00 | 91 | 1012.1 |
| 20260502090504 | 24 | 115 | 0.0 | 1.6 | 0.00 | 0.00 | 0.00 | 91 | 1012.0 |
| 20260502071503 | 24 | 17 | 0.0 | 0.0 | 0.00 | 0.00 | 0.00 | 89 | 1012.2 |
| 20260502071004 | 24 | 17 | 0.0 | 1.6 | 0.00 | 0.00 | 0.00 | 89 | 1012.2 |
| 20260502070504 | 24 | 68 | 0.0 | 1.6 | 0.00 | 0.00 | 0.00 | 89 | 1012.1 |
| 20260502064504 | 25 | 52 | 0.0 | 1.6 | 0.00 | 0.00 | 0.00 | 88 | 1012.3 |
| 20260502063004 | 25 | 102 | 0.0 | 1.6 | 0.00 | 0.00 | 0.00 | 87 | 1012.4 |
| 20260502062503 | 25 | 80 | 0.0 | 1.6 | 0.00 | 0.00 | 0.00 | 87 | 1012.4 |
| 20260502062003 | 25 | 168 | 0.0 | 1.6 | 0.00 | 0.00 | 0.00 | 87 | 1012.4 |
| 20260502061504 | 25 | 153 | 0.0 | 3.2 | 0.00 | 0.00 | 0.00 | 87 | 1012.4 |
| 20260502060503 | 25 | 143 | 1.6 | 3.2 | 0.00 | 0.00 | 0.00 | 87 | 1012.3 |
| 20260502060003 | 25 | 166 | 1.6 | 4.8 | 0.00 | 0.00 | 0.00 | 87 | 1012.3 |
| 20260502055004 | 25 | 169 | 1.6 | 3.2 | 0.00 | 0.00 | 0.00 | 87 | 1012.4 |
| 20260502054503 | 25 | 162 | 1.6 | 4.8 | 0.00 | 0.00 | 0.00 | 87 | 1012.5 |
| 20260502054004 | 25 | 156 | 1.6 | 4.8 | 0.00 | 0.00 | 0.00 | 87 | 1012.4 |
| 20260502053004 | 25 | 151 | 1.6 | 3.2 | 0.00 | 0.00 | 0.00 | 87 | 1012.4 |
| 20260502052504 | 25 | 159 | 1.6 | 4.8 | 0.00 | 0.00 | 0.00 | 86 | 1012.5 |
| 20260502051504 | 25 | 159 | 0.0 | 4.8 | 0.00 | 0.00 | 0.00 | 86 | 1012.5 |
| 20260502050503 | 25 | 167 | 1.6 | 8.0 | 0.00 | 0.00 | 0.00 | 86 | 1012.6 |
| 20260502045004 | 25 | 149 | 1.6 | 4.8 | 0.00 | 0.00 | 0.00 | 86 | 1012.8 |
| 20260502044504 | 25 | 142 | 1.6 | 4.8 | 0.00 | 0.00 | 0.00 | 86 | 1012.9 |
| 20260502044004 | 25 | 160 | 0.0 | 4.8 | 0.00 | 0.00 | 0.00 | 86 | 1012.9 |
| 20260502043504 | 25 | 160 | 0.0 | 4.8 | 0.00 | 0.00 | 0.00 | 86 | 1013.0 |
| 20260502043003 | 25 | 157 | 1.6 | 4.8 | 0.00 | 0.00 | 0.00 | 86 | 1013.1 |
| 20260502042004 | 25 | 142 | 0.0 | 4.8 | 0.00 | 0.00 | 0.00 | 85 | 1013.2 |
| 20260502041504 | 25 | 148 | 1.6 | 4.8 | 0.00 | 0.00 | 0.00 | 85 | 1013.2 |
| 20260502041004 | 25 | 140 | 1.6 | 3.2 | 0.00 | 0.00 | 0.00 | 84 | 1013.3 |
| 20260502035504 | 26 | 137 | 0.0 | 1.6 | 0.00 | 0.00 | 0.00 | 83 | 1013.0 |
| 20260502035004 | 26 | 148 | 0.0 | 4.8 | 0.00 | 0.00 | 0.00 | 82 | 1012.9 |
| 20260502034504 | 26 | 161 | 0.0 | 3.2 | 0.00 | 0.00 | 0.00 | 82 | 1012.9 |